Weather History for Champaign, IL

Change the Weather History Date:

Saturday, August 11, 2012

  Actual Average Record
Temperature  
Mean Temperature 65 °F 73 °F  
Max Temperature 80 °F 83 °F 91 °F (2005)
Min Temperature 49 °F 62 °F 46 °F (2004)
Degree Days  
Heating Degree Days 0 0  
Month to date heating degree days 0 0  
Since 1 June heating degree days 14 19  
Since 1 July heating degree days 0 2  
Cooling Degree Days 0 8  
Month to date cooling degree days 119 88  
Year to date cooling degree days 1061 685  
Since 1 June cooling degree days 835 593  
Growing Degree Days 14 (Base 50)    
Moisture  
Dew Point 50 °F    
Average Humidity 62    
Maximum Humidity 93    
Minimum Humidity 30    
Precipitation  
Precipitation 0.00 in 0.11 in 0.30 in (1950)
Month to date precipitation 0.16 1.00  
Year to date precipitation 12.42 24.67  
Sea Level Pressure  
Sea Level Pressure 30.00 in    
Wind  
Wind Speed 6 mph (NW)    
Max Wind Speed 17 mph    
Max Gust Speed 23 mph    
Visibility 10 miles    
Events      
T = Trace of Precipitation, MM = Missing Value Source: NWS Daily Summary

Daily Weather History Graph

Daily Weather History Graph

Search for Another Location

Airport:

Trip Planner

Search our weather history database for the weather conditions in past years. The results will help you decide how hot, cold, wet, or windy it might be!

Date:

Astronomy

Aug. 11, 2012 Rise Set
Actual Time 6:01 AM CDT 7:54 PM CDT
Civil Twilight 5:31 AM CDT 8:23 PM CDT
Nautical Twilight 4:56 AM CDT 8:59 PM CDT
Astronomical Twilight 4:17 AM CDT 9:37 PM CDT
Moon 12:29 AM CDT (8/11) 3:28 PM CDT (8/11)
Length of Visible Light 14h 51m
Length of Day
13h 53m
Waning Crescent, 32% of the Moon is Illuminated
Aug 11
Waning Crescent
Aug 17
New
Aug 24
First Quarter
Aug 31
Full
Sep 8
Last Quarter

Hourly Weather History & Observations

Time (CDT) Temp. Dew Point Humidity Pressure Visibility Wind Dir Wind Speed Gust Speed Precip Events Conditions
12:53 AM 54.0 °F 51.1 °F 90% 29.98 in 10.0 mi WNW 4.6 mph - N/A   Clear
1:53 AM 53.1 °F 50.0 °F 89% 29.96 in 10.0 mi Calm Calm - N/A   Clear
2:53 AM 51.1 °F 48.9 °F 92% 29.97 in 10.0 mi West 5.8 mph - N/A   Clear
3:53 AM 51.1 °F 48.0 °F 89% 29.97 in 10.0 mi WNW 3.5 mph - N/A   Clear
4:53 AM 50.0 °F 48.0 °F 93% 29.98 in 10.0 mi NW 4.6 mph - N/A   Clear
5:53 AM 48.9 °F 46.9 °F 93% 30.00 in 10.0 mi WNW 4.6 mph - N/A   Clear
6:53 AM 53.1 °F 50.0 °F 89% 30.01 in 10.0 mi WNW 3.5 mph - N/A   Clear
7:53 AM 57.9 °F 54.0 °F 87% 30.02 in 10.0 mi NW 3.5 mph - N/A   Clear
8:53 AM 64.9 °F 53.1 °F 65% 30.02 in 10.0 mi NW 8.1 mph - N/A   Clear
9:53 AM 70.0 °F 52.0 °F 53% 30.03 in 10.0 mi NNW 9.2 mph - N/A   Clear
10:53 AM 73.0 °F 51.1 °F 46% 30.02 in 10.0 mi NNW 12.7 mph 18.4 mph N/A   Clear
11:53 AM 75.0 °F 50.0 °F 41% 30.02 in 10.0 mi North 15.0 mph - N/A   Clear
12:53 PM 75.9 °F 48.0 °F 37% 30.01 in 10.0 mi WNW 8.1 mph 20.7 mph N/A   Clear
1:53 PM 78.1 °F 48.0 °F 35% 30.01 in 10.0 mi NNW 11.5 mph 19.6 mph N/A   Clear
2:53 PM 79.0 °F 46.9 °F 32% 30.00 in 10.0 mi NW 12.7 mph 18.4 mph N/A   Clear
3:53 PM 80.1 °F 46.9 °F 31% 29.98 in 10.0 mi NNW 8.1 mph - N/A   Clear
4:53 PM 79.0 °F 46.9 °F 32% 29.98 in 10.0 mi NNW 8.1 mph - N/A   Clear
5:53 PM 78.1 °F 46.9 °F 33% 29.98 in 10.0 mi WNW 8.1 mph - N/A   Clear
6:53 PM 75.0 °F 48.9 °F 40% 29.98 in 10.0 mi WNW 6.9 mph - N/A   Clear
7:53 PM 64.9 °F 53.1 °F 65% 29.99 in 10.0 mi NW 3.5 mph - N/A   Clear
8:53 PM 62.1 °F 53.1 °F 72% 30.01 in 10.0 mi WNW 6.9 mph - N/A   Clear
9:53 PM 60.1 °F 53.1 °F 78% 30.01 in 10.0 mi Calm Calm - N/A   Clear
10:53 PM 57.9 °F 52.0 °F 81% 30.03 in 10.0 mi NW 4.6 mph - N/A   Clear
11:53 PM 57.0 °F 51.1 °F 81% 30.03 in 10.0 mi Calm Calm - N/A   Clear